User: anonymous
Location: Unspecified
(0.0000°N, 0.0000°E)
Time: 13:41:19
(UTC+02:00)
Language:

ARIANE 5 R/B - Orbit

View from above orbital plane
View from above orbital plane
View from above satellite
View from above satellite

Ground track
Ground track

The orbit data is extracted from the following two-line orbital elements,

1 27510U 02040C   14259.85543968 -.00000324  00000-0 -40771-3 0   589
2 27510 005.0273 240.5756 7162675 284.9131 008.1791 02.27181044100067
Epoch (UTC): 16 September 2014 20:31:49
Eccentricity: 0.7162675
inclination: 5.0273°
perigee height: 557 km
apogee height: 35572 km
right ascension of ascending node: 240.5756°
argument of perigee: 284.9131°
revolutions per day: 2.27181044
mean anomaly at epoch: 8.1791°
orbit number at epoch: 10006

The dashed part of the orbit path shows where the satellite is in the earth's shadow,  

DLR